Showing default

LKW-3, 43146

Orbit data source: Space-Track

LKW-3, 43146 is a Chinese payload satellite in SSO that was launched on Sat, 13 Jan 2018 UTC via a CHANG ZHENG 2D launch vehicle from the Jiuquan Satellite Launch Center, China (JSC). Payload-class satellites include a variety of spacecraft equipped with specific instruments for various scientific and technological missions. These include communications satellites like Starlink; space stations such as the ISS; scientific satellites like the Hubble; Earth observation satellites from companies like Planet Labs, Umbra, and HawkEye 360; GPS; miniature CubeSats for education and research; and military/defense satellites.

Loading next visibility...
Identifier
43146, 2018-006A
Orbit
SSO
Country
Flag of CNCN / PRC
Related business
Manufacturer
CAST?
Mission
Operational Defense Imaging
Bus & Motor
LKW, Unknown motor
Mass
~2,000 kg wet, ~2,000 kg dry
Launch date (UTC)
2018-01-13 (8 years ago)
Launch vehicle
CHANG ZHENG 2D
Launch site
Jiuquan Satellite Launch Center, China (JSC)
Object type
Payload
Rocket body
Debris
Shape & HBR
Hex Cyl + 3 Pan, 5.0 m
Radar Cross Section
8.135 m², Large (>1 m²)

Expand to show TLE details & history
Last TLE update: 3 hours ago

TLE from 3 hours ago
0 LKW-3
1 43146U 18006A   25304.33078731  .00015192  00000-0  53639-3 0  9996
2 43146  97.6352  92.3318 0004014  49.7633 310.3957 15.29314863433661
Epoch: 2025-10-31T07:56Z
TLE epoch observation values (Epoch: 2025-10-31T07:56:20.023Z)
Latitude
-0.00004°
Longitude
-66.62838°
Altitude
479.172 km
Speed
7.627 km/s
True Right ascension
06h 09m 19s
True Declination
0° 00' 00"
Sunlit
Object was in full shadow at epoch
Visualization orbit readout
Latitude
Unknown
Longitude
Unknown
Altitude
Unknown
Speed
Unknown
Apparent Right ascension
Unknown
Apparent Declination
Unknown
Sunlit
N/A
Visualization observer readout
Local Sidereal Time
06:43:09
Azimuth
Unknown
Elevation
Unknown
Doppler factor
Unknown
Orbital elements
Apogee altitude
477.573 km
Perigee altitude
472.072 km
Semi-major axis
6,852.96 km
Eccentricity
0.0004
Inclination
97.6352°
RAAN
92.3318°
Arg. of periapsis
49.7633°
True anomaly
310.36066°
Mean anomaly
310.3957°
Eccentric anomaly
310.37818°
Mean motion
3.82583 °/min
Orbital period
94.1 mins
BSTAR
0.00053639
Loading maneuver chart data...
Computing Atmospheric mass density...
Loading historical data...
Loading historical data...
Loading historical data...
Loading historical data...
Loading historical data...
Loading historical data...
Loading historical data...

Documentation

Showing up to 5 results
|